Location: C�mpuri de-Sus
(45.9500°N, 22.5500°E)
Time: 06:04:43
(UTC+00:00)

Cosmos 1758 - Pass Details

Date: 24 October 2021
Orbit: 540 x 560 km, 82.5° (Epoch: 04 December)

Event Time Altitude Azimuth Distance (km) Brightness Sun altitude
Rises 15:50:47 0° 201° (SSW) 2,694 7.4 -4.6°
Reaches altitude 10° 15:52:59 10° 208° (SSW) 1,804 6.6 -5.0°
Maximum altitude 15:56:49 47° 283° (WNW) 724 4.5 -5.6°
Drops below altitude 10° 16:00:41 10° 358° (N) 1,813 5.9 -6.3°
Sets 16:02:55 0° 4° (N) 2,709 6.7 -6.7°
